Troy, MI

11:52 AM EDT on August 19, 2017 (GMT -0400)
Troy

Weather History for KVLL - October, 2013

Change the Weather History Date:

Wednesday, October 2, 2013

  Actual Average (KDET) Record (KDET)
Temperature  
Mean Temperature 70 °F -  
Max Temperature 79 °F 67 °F 85 °F (1963)
Min Temperature 60 °F 50 °F 34 °F (1974)
Cooling Degree Days 4    
Growing Degree Days 20 (Base 50)    
Moisture  
Dew Point 49 °F    
Average Humidity 58    
Maximum Humidity 92    
Minimum Humidity 20    
Precipitation  
Precipitation 0.00 in - - ()
Sea Level Pressure  
Sea Level Pressure 30.06 in    
Wind  
Wind Speed 6 mph (WNW)    
Max Wind Speed 9 mph    
Max Gust Speed -    
Visibility 9 miles    
Events      
Averages and records for this station are not official NWS values.
T = Trace of Precipitation, MM = Missing Value Source: NWS Daily Summary

Daily Weather History Graph

Daily Weather History Graph

Search for Another Location

Airport or City:

Trip Planner

Search our weather history database for the weather conditions in past years. The results will help you decide how hot, cold, wet, or windy it might be!

Date:

Astronomy

Oct. 02, 2013 Rise Set
Actual Time 7:31 AM EDT 7:11 PM EDT
Civil Twilight 7:03 AM EDT 7:40 PM EDT
Nautical Twilight 6:30 AM EDT 8:12 PM EDT
Astronomical Twilight 5:57 AM EDT 8:45 PM EDT
Moon 5:00 AM EDT (10/2) 5:49 PM EDT (10/2)
Length of Visible Light 12h 36m
Length of Day
11h 40m
Waning Crescent, 6% of the Moon is Illuminated
Oct 2
Waning Crescent
Oct 4
New
Oct 11
First Quarter
Oct 18
Full
Oct 26
Last Quarter

Hourly Weather History & Observations

Time (EDT) Temp. Dew Point Humidity Pressure Visibility Wind Dir Wind Speed Gust Speed Precip Events Conditions
12:15 AM 63.1 °F 59.0 °F 86% 29.98 in 7.0 mi SSW 8.1 mph - N/A   Clear
12:35 AM 63.1 °F 59.0 °F 86% 29.98 in 10.0 mi SW 8.1 mph - N/A   Clear
12:54 AM 63.1 °F 59.0 °F 86% 29.98 in 10.0 mi SW 8.1 mph - N/A   Clear
1:15 AM 63.0 °F 59.0 °F 87% 29.98 in 10.0 mi SSW 8.1 mph - N/A   Clear
1:34 AM 63.0 °F 59.0 °F 87% 29.99 in 10.0 mi SW 6.9 mph - N/A   Clear
1:54 AM 63.0 °F 59.0 °F 87% 29.99 in 10.0 mi SW 8.1 mph - N/A   Clear
2:15 AM 62.8 °F 59.0 °F 87% 29.99 in 10.0 mi SW 5.8 mph - N/A   Clear
2:34 AM 62.6 °F 59.0 °F 88% 29.99 in 10.0 mi SW 6.9 mph - N/A   Clear
2:55 AM 62.4 °F 59.0 °F 89% 29.99 in 10.0 mi SW 5.8 mph - N/A   Clear
3:14 AM 62.4 °F 59.0 °F 89% 29.99 in 10.0 mi SW 6.9 mph - N/A   Clear
3:34 AM 62.4 °F 59.0 °F 89% 30.00 in 10.0 mi SW 5.8 mph - N/A   Clear
3:55 AM 62.2 °F 59.0 °F 89% 30.00 in 10.0 mi WSW 4.6 mph - N/A   Clear
4:14 AM 62.1 °F 59.0 °F 90% 30.01 in 10.0 mi WSW 3.5 mph - N/A   Scattered Clouds
4:35 AM 61.9 °F 59.0 °F 90% 30.01 in 7.0 mi WSW 4.6 mph - N/A   Scattered Clouds
4:54 AM 61.7 °F 59.0 °F 91% 30.02 in 7.0 mi SW 5.8 mph - N/A   Clear
5:14 AM 61.3 °F 58.8 °F 91% 30.02 in 7.0 mi WSW 3.5 mph - N/A   Clear
5:34 AM 61.3 °F 59.0 °F 92% 30.02 in 7.0 mi West 4.6 mph - N/A   Clear
5:54 AM 61.3 °F 58.8 °F 91% 30.03 in 7.0 mi WSW 3.5 mph - N/A   Clear
6:15 AM 61.2 °F 58.6 °F 91% 30.03 in 7.0 mi West 4.6 mph - N/A   Clear
6:34 AM 61.7 °F 59.0 °F 91% 30.04 in 7.0 mi West 3.5 mph - N/A   Clear
6:54 AM 62.6 °F 59.9 °F 91% 30.04 in 7.0 mi West 4.6 mph - N/A   Clear
7:14 AM 62.6 °F 59.9 °F 91% 30.05 in 7.0 mi WNW 6.9 mph - N/A   Clear
7:34 AM 62.6 °F 59.9 °F 91% 30.05 in 5.0 mi WNW 6.9 mph - N/A   Clear
7:55 AM 62.8 °F 59.9 °F 90% 30.06 in 5.0 mi WNW 9.2 mph - N/A   Clear
8:14 AM 63.1 °F 59.5 °F 88% 30.07 in 7.0 mi WNW 8.1 mph - N/A   Clear
8:34 AM 63.7 °F 59.4 °F 86% 30.07 in 7.0 mi WNW 6.9 mph - N/A   Clear
8:54 AM 64.6 °F 58.8 °F 82% 30.08 in 10.0 mi WNW 5.8 mph - N/A   Clear
9:14 AM 65.5 °F 57.9 °F 77% 30.08 in 10.0 mi WNW 8.1 mph - N/A   Clear
9:34 AM 66.4 °F 57.0 °F 72% 30.09 in 10.0 mi NW 8.1 mph - N/A   Clear
9:54 AM 67.3 °F 55.9 °F 67% 30.09 in 10.0 mi WNW 5.8 mph - N/A   Clear
10:15 AM 68.7 °F 54.1 °F 60% 30.10 in 10.0 mi WNW 5.8 mph - N/A   Clear
10:34 AM 69.4 °F 52.3 °F 54% 30.10 in 10.0 mi NW 6.9 mph - N/A   Clear
10:55 AM 70.7 °F 51.8 °F 51% 30.10 in 10.0 mi NNW 6.9 mph - N/A   Clear
11:14 AM 71.6 °F 50.4 °F 47% 30.10 in 10.0 mi North 5.8 mph - N/A   Clear
11:35 AM 72.3 °F 48.2 °F 42% 30.11 in 10.0 mi NNW 5.8 mph - N/A   Clear
11:54 AM 73.6 °F 45.7 °F 37% 30.11 in 10.0 mi NW 5.8 mph - N/A   Clear
12:14 PM 73.8 °F 41.7 °F 32% 30.11 in 10.0 mi NW 4.6 mph - N/A   Clear
12:34 PM 74.5 °F 40.6 °F 30% 30.11 in 10.0 mi Calm Calm - N/A   Clear
12:54 PM 75.4 °F 39.6 °F 27% 30.11 in 10.0 mi WNW 5.8 mph - N/A   Clear
1:14 PM 76.1 °F 39.9 °F 27% 30.11 in 10.0 mi NNE 3.5 mph - N/A   Clear
1:34 PM 76.8 °F 38.1 °F 25% 30.10 in 10.0 mi WNW 4.6 mph - N/A   Clear
1:54 PM 77.5 °F 36.7 °F 23% 30.10 in 10.0 mi West 4.6 mph - N/A   Clear
2:14 PM 78.3 °F 38.5 °F 24% 30.10 in 10.0 mi NW 4.6 mph - N/A   Clear
2:34 PM 79.0 °F 38.1 °F 23% 30.09 in 10.0 mi WNW 6.9 mph - N/A   Clear
2:54 PM 78.1 °F 39.4 °F 25% 30.09 in 10.0 mi NNW 8.1 mph - N/A   Clear
3:14 PM 78.3 °F 37.8 °F 23% 30.09 in 10.0 mi NNW 8.1 mph - N/A   Clear
3:34 PM 78.8 °F 37.2 °F 22% 30.09 in 10.0 mi WNW 6.9 mph - N/A   Clear
3:54 PM 78.8 °F 36.0 °F 21% 30.08 in 10.0 mi West 8.1 mph - N/A   Clear
4:14 PM 79.2 °F 35.4 °F 21% 30.08 in 10.0 mi WNW 4.6 mph - N/A   Clear
4:34 PM 79.2 °F 36.1 °F 21% 30.08 in 10.0 mi Calm Calm - N/A   Clear
4:54 PM 78.8 °F 34.7 °F 20% 30.08 in 10.0 mi West 5.8 mph - N/A   Clear
5:14 PM 78.3 °F 34.9 °F 21% 30.07 in 10.0 mi WNW 6.9 mph - N/A   Clear
5:34 PM 77.9 °F 34.3 °F 21% 30.07 in 10.0 mi NW 4.6 mph - N/A   Clear
5:54 PM 77.5 °F 33.8 °F 20% 30.08 in 10.0 mi WNW 4.6 mph - N/A   Clear
6:14 PM 77.5 °F 36.0 °F 22% 30.07 in 10.0 mi NW 3.5 mph - N/A   Clear
6:34 PM 76.5 °F 36.1 °F 23% 30.08 in 10.0 mi WNW 3.5 mph - N/A   Clear
6:54 PM 75.6 °F 37.0 °F 25% 30.08 in 10.0 mi NW 3.5 mph - N/A   Clear
7:15 PM 71.2 °F 41.0 °F 33% 30.08 in 10.0 mi NNW 3.5 mph - N/A   Clear
7:34 PM 69.8 °F 42.3 °F 37% 30.08 in 10.0 mi Calm Calm - N/A   Clear
7:55 PM 68.2 °F 43.9 °F 41% 30.09 in 10.0 mi Calm Calm - N/A   Clear
8:14 PM 67.1 °F 45.1 °F 45% 30.09 in 10.0 mi Calm Calm - N/A   Clear
8:34 PM 66.0 °F 45.7 °F 48% 30.09 in 10.0 mi Calm Calm - N/A   Clear
8:54 PM 65.1 °F 46.2 °F 50% 30.09 in 10.0 mi Calm Calm - N/A   Clear
9:14 PM 63.9 °F 47.3 °F 55% 30.09 in 10.0 mi Calm Calm - N/A   Clear
9:35 PM 63.0 °F 48.0 °F 58% 30.10 in 10.0 mi Calm Calm - N/A   Clear
9:54 PM 63.0 °F 46.8 °F 55% 30.10 in 10.0 mi NNE 3.5 mph - N/A   Clear
10:15 PM 62.4 °F 46.9 °F 57% 30.10 in 10.0 mi NE 3.5 mph - N/A   Clear
10:35 PM 61.7 °F 47.5 °F 60% 30.10 in 10.0 mi Calm Calm - N/A   Clear
10:54 PM 61.7 °F 47.7 °F 60% 30.10 in 10.0 mi NNE 3.5 mph - N/A   Clear
11:15 PM 61.0 °F 47.3 °F 61% 30.10 in 10.0 mi Calm Calm - N/A   Clear
11:34 PM 60.1 °F 46.8 °F 61% 30.10 in 10.0 mi North 3.5 mph - N/A   Clear
11:55 PM 60.4 °F 46.2 °F 59% 30.11 in 10.0 mi NNE 3.5 mph - N/A   Clear